Retour au catalogue

CZ-4C DEB

ActifPO
NORAD 38296·DEBRIS·🇨🇳 China

Lancé Nov 4, 2010 depuis Taiyuan Satellite Launch Center

Loading…

Prochains Passages (prochaines 24 heures)

TLE

VieillissantSource: Space-Track

Époque: Sep 9, 2026, 22:44 UTC

1 38296U 10059F   26252.94774713  .00000210  00000-0  20199-3 0  9999
2 38296  98.7909 163.5411 0238522 197.6530 161.6229 13.77861768790700

Suivez CZ-4C DEB en temps réel avec AllMySat

Download on the App Store